Orbital Elements at Epoch 2459200.5 (2020-Dec-17.0) TDB
Reference: JPL 14 (heliocentric ecliptic J2000)
Element | Value | Uncertainty (1-sigma) | Units |
e | .2545267945507843 | 1.0612e-07 | |
a | 2.628871727259083 | 3.3527e-08 | au |
q | 1.959753433234645 | 2.6758e-07 | au |
i | 4.85885943985386 | 7.939e-06 | deg |
node | 62.93343791850553 | 0.00013261 | deg |
peri | 35.75652416681629 | 0.0001386 | deg |
M | 269.0246673605977 | 4.701e-05 | deg |
tp | 2459593.935615783629 (2022-Jan-14.43561578) | 0.00020978 | TDB |
period | 1556.870610668832 4.26 | 2.9783e-05 8.154e-08 | d yr |
n | .2312330886928002 | 4.4235e-09 | deg/d |
Q | 3.297990021283521 | 4.206e-08 | au |
|
| | Orbit Determination Parameters
Additional Information
|